TimeEET,TemperatureF,Dew PointF,Humidity,Sea Level PressureIn,VisibilityMPH,Wind Direction,Wind SpeedMPH,Gust SpeedMPH,PrecipitationIn,Events,Conditions,WindDirDegrees,DateUTC
12:50 AM,10.4,6.8,85,30.12,-9999.0,ESE,12.7,-,N/A,,Clear,110,2012-12-31 22:50:00
1:50 AM,10.4,5.0,79,30.12,-9999.0,ESE,10.4,-,N/A,,Clear,110,2012-12-31 23:50:00
2:00 AM,17,17,97,,0,Calm,Calm,,,Fog,Partial Fog,,2013-01-01 00:00:00
2:50 AM,14.0,6.8,73,30.12,-9999.0,SE,9.2,-,N/A,,Clear,130,2013-01-01 00:50:00
3:50 AM,14.0,3.2,62,30.12,-9999.0,SE,6.9,-,N/A,,Clear,140,2013-01-01 01:50:00
4:50 AM,10.4,1.4,67,30.12,-9999.0,ESE,9.2,-,N/A,,Clear,110,2013-01-01 02:50:00
5:50 AM,14.0,6.8,73,30.09,-9999.0,ESE,9.2,-,N/A,,Clear,110,2013-01-01 03:50:00
6:50 AM,15.8,6.8,68,30.12,-9999.0,ESE,8.1,-,N/A,,Clear,120,2013-01-01 04:50:00
7:50 AM,14.0,6.8,73,30.12,-9999.0,ESE,8.1,-,N/A,,Clear,110,2013-01-01 05:50:00
8:00 AM,18,15,84,,1,SSE,1.2,,,Fog,Partial Fog,150,2013-01-01 06:00:00
8:50 AM,15.8,8.6,73,30.12,-9999.0,ESE,10.4,-,N/A,,Clear,110,2013-01-01 06:50:00
9:50 AM,19.4,12.2,74,30.12,-9999.0,ESE,8.1,-,N/A,,Clear,110,2013-01-01 07:50:00
10:50 AM,23.0,14.0,68,30.12,-9999.0,ESE,3.5,-,N/A,,Clear,120,2013-01-01 08:50:00
11:50 AM,24.8,14.0,64,30.12,-9999.0,SSE,3.5,-,N/A,,Clear,150,2013-01-01 09:50:00
12:50 PM,23.0,15.8,74,30.09,-9999.0,ESE,5.8,-,N/A,,Clear,120,2013-01-01 10:50:00
1:50 PM,24.8,15.8,69,30.09,-9999.0,SE,6.9,-,N/A,,Clear,130,2013-01-01 11:50:00
2:00 PM,34,12,27,30.36,,ENE,1.2,,,,,60,2013-01-01 12:00:00
2:50 PM,24.8,14.0,64,30.12,-9999.0,ENE,5.8,-,N/A,,Clear,70,2013-01-01 12:50:00
3:50 PM,19.4,10.4,68,30.12,-9999.0,ESE,5.8,-,N/A,,Clear,120,2013-01-01 13:50:00
4:50 PM,19.4,10.4,68,30.12,-9999.0,SE,6.9,-,N/A,,Clear,130,2013-01-01 14:50:00
5:50 PM,17.6,10.4,73,30.15,-9999.0,East,6.9,-,N/A,,Clear,100,2013-01-01 15:50:00
6:50 PM,15.8,8.6,73,30.15,-9999.0,East,9.2,-,N/A,,Clear,100,2013-01-01 16:50:00
7:50 PM,17.6,10.4,73,30.15,-9999.0,ESE,10.4,-,N/A,,Clear,110,2013-01-01 17:50:00
8:00 PM,26,16,53,,9,Calm,Calm,,,,,,2013-01-01 18:00:00
8:50 PM,15.8,10.4,79,30.15,-9999.0,ESE,11.5,-,N/A,,Clear,110,2013-01-01 18:50:00
9:50 PM,14.0,8.6,79,30.15,-9999.0,East,11.5,-,N/A,,Clear,100,2013-01-01 19:50:00
10:50 PM,14.0,8.6,79,30.18,-9999.0,ESE,11.5,-,N/A,,Clear,110,2013-01-01 20:50:00
11:50 PM,15.8,8.6,73,30.18,-9999.0,ESE,11.5,-,N/A,,Clear,110,2013-01-01 21:50:00